User: anonymous   Login
Location: Maiden
(35.5760°N, 81.2120°W)
Time: 23:18:52
(UTC-04:00)
Language:

Cosmos 2151 - Orbit

View from above orbital plane
View from above orbital plane
View from above satellite
View from above satellite

Ground track
Ground track

The orbit data is extracted from the following two-line orbital elements,

1 21422U 91042A   16145.81919520  .00000388  00000-0  35980-4 0  9997
2 21422  82.5017 255.9555 0015250 146.3580 213.8611 14.91629368350607
Epoch (UTC): 24 May 2016 19:39:38
Eccentricity: 0.0015250
inclination: 82.5017°
perigee height: 582 km
apogee height: 603 km
right ascension of ascending node: 255.9555°
argument of perigee: 146.3580°
revolutions per day: 14.91629368
mean anomaly at epoch: 213.8611°
orbit number at epoch: 35060

The dashed part of the orbit path shows where the satellite is in the earth's shadow,  

DLR